{"data":{"norad_id":58287,"intl_designator":"2023-174AH","name":"PICO-01B009","alt_names":[],"object_type":"PAYLOAD","status":"ACTIVE","operator":null,"country":"IT","launch_date":"2023-11-11","launch_site_code":"AFWTR","launch_vehicle":null,"mission":null,"orbit_class":"UNKNOWN","rcs_meters":null,"size_class":null,"mass_kg":null,"dimensions":null,"purposes":[],"wikipedia_slug":null,"has_3d_model":false,"image_url":null,"decayed_at":null,"tle_current":{"epoch":"2026-08-05T08:19:26.246784Z","epoch_age_seconds":4226902,"freshness":"OLD","line1":"1 58287U 23174AH  26217.34683156  .03636652  24675-5  74699-3 0  9999","line2":"2 58287  97.3509 318.8125 0014273 271.4369  88.5290 16.30899939154001","mean_motion":16.30899939,"eccentricity":0.0014273,"inclination_deg":97.3509,"raan_deg":318.8125,"arg_perigee_deg":271.4369,"mean_anomaly_deg":88.529,"bstar":0.00074699,"rev_number":15400,"period_min":88.294809850992,"perigee_km":180.74753810962,"apogee_km":199.49729143503,"semimajor_km":6568.2594147723,"source":"CELESTRAK","updated_at":"2026-08-08T09:00:22.591894Z"}}}